This is the latest recevied weather packets stored in our database for station/object K8RRT. If no packets are shown the sender has not sent any weather packets the latest 10 day(s).
| Time | Temp. | Humidity | Pressure | Rain* | Wind** | Luminosity | Snow |
|---|---|---|---|---|---|---|---|
| 1777067691 | 27.78° C | 42% | 1003.3 hPa | 0 mm | - | 193 W/m² | - |
| 1777067385 | 27.78° C | 42% | 1003.6 hPa | 0 mm | - | 262 W/m² | - |
| 1777067085 | 27.78° C | 41% | 1003.6 hPa | 0 mm | - | 246 W/m² | - |
| 1777066780 | 27.78° C | 40% | 1003.6 hPa | 0 mm | - | 255 W/m² | - |
| 1777066477 | 27.78° C | 43% | 1003.3 hPa | 0 mm | - | 277 W/m² | - |
| 1777066172 | 27.22° C | 42% | 1003.6 hPa | 0 mm | - | 257 W/m² | - |
| 1777065871 | 27.78° C | 41% | 1003.4 hPa | 0 mm | - | 154 W/m² | - |
| 1777065567 | 27.78° C | 41% | 1003.7 hPa | 0 mm | - | 346 W/m² | - |
| 1777065261 | 27.78° C | 40% | 1003.7 hPa | 0 mm | - | 373 W/m² | - |
| 1777064958 | 28.33° C | 38% | 1003.5 hPa | 0 mm | - | 411 W/m² | - |
| 1777064655 | 28.33° C | 37% | 1003.9 hPa | 0 mm | - | 436 W/m² | - |
| 1777064351 | 28.33° C | 39% | 1003.6 hPa | 0 mm | - | 410 W/m² | - |
| 1777064048 | 27.78° C | 38% | 1003.8 hPa | 0 mm | - | 466 W/m² | - |
| 1777063747 | 28.33° C | 37% | 1003.9 hPa | 0 mm | - | 468 W/m² | - |
| 1777063443 | 28.33° C | 38% | 1004 hPa | 0 mm | - | 370 W/m² | - |
| 1777063139 | 28.33° C | 39% | 1003.9 hPa | 0 mm | - | 525 W/m² | - |
| 1777062836 | 28.33° C | 38% | 1003.8 hPa | 0 mm | - | 559 W/m² | - |
| 1777062531 | 27.22° C | 43% | 1004 hPa | 0 mm | - | 494 W/m² | - |
| 1777062225 | 27.78° C | 40% | 1004.3 hPa | 0 mm | - | 544 W/m² | - |
| 1777061923 | 28.33° C | 41% | 1004.1 hPa | 0 mm | - | 377 W/m² | - |
| 1777061619 | 27.78° C | 40% | 1004 hPa | 0 mm | - | 597 W/m² | - |
| 1777061315 | 27.78° C | 42% | 1004.2 hPa | 0 mm | - | 579 W/m² | - |
| 1777061010 | 27.78° C | 41% | 1004.2 hPa | 0 mm | - | 562 W/m² | - |
| 1777060706 | 27.78° C | 44% | 1004.6 hPa | 0 mm | - | 618 W/m² | - |
| 1777060401 | 27.78° C | 42% | 1004.7 hPa | 0 mm | - | 576 W/m² | - |
* Rain latest hour (hover to see other rain measurements)
** Current wind speed in m/s (hover to see current wind gust speed)